• Join FlightAware (Why Join?)
  • Login
  • US Flag 
01:04PM EST


 

Airport Tracker/Info


-or-


 

Live Flight TrackerFlight Track Log ✈ UAL4191 ✈ 23-Apr-2013 ✈ KTYR - KIAH

Flight Track Log - Related Links

Times and Time Zones

All times are in EDT time to prevent confusion due to time zone crossing. See the UAL4191 flight status page for this flight to view local times or setup timezone preferences in your user account.

Time Position Orientation Groundspeed Altitude Reporting Facility
EDT Latitude Longitude Course Direction KTS MPH feet Rate Location/Type
11:29AM 32.2878 -95.4375 159° South 192 221 4,100  Level Fort Worth Center
11:30AM 32.2492 -95.3769 127° Southeast 241 277 5,800 1,950 Climbing Fort Worth Center
11:31AM 32.1851 -95.1851 140° Southeast  Level FlightAware Approximate
11:31AM 32.1900 -95.3414 153° Southeast 246 283 8,000  Level Fort Worth Center
11:32AM 32.1322 -95.1162 161° South  Level FlightAware Approximate
11:32AM 32.1247 -95.3014 153° Southeast 257 296 10,200  Level Fort Worth Center
11:33AM 32.0535 -95.0847 161° South  Level FlightAware Approximate
11:33AM 32.0467 -95.2542 153° Southeast 286 329 11,500  Level Fort Worth Center
11:34AM 31.9925 -95.0577 159° South  Level FlightAware Approximate
11:34AM 31.9644 -95.2047 153° Southeast 313 360 13,400  Level Fort Worth Center
11:37AM 31.7436 -95.0678 152° Southeast 383 441 15,000 464 Climbing Houston Center
11:38AM 31.6428 -95.0072 153° Southeast 404 465 15,000  Level Houston Center
11:39AM 31.5431 -94.9458 152° Southeast 403 464 15,000  Level Houston Center
11:40AM 31.4244 -94.8744 153° Southeast 399 459 15,000  Level Houston Center
11:41AM 31.3264 -94.8153 153° Southeast 398 458 15,000  Level Houston Center
11:42AM 31.2294 -94.7592 154° Southeast 400 460 15,000  Level Houston Center
11:43AM 31.1142 -94.6997 156° South 395 455 15,000  Level Houston Center
11:44AM 31.0106 -94.6611 162° South 391 450 15,000  Level Houston Center
11:45AM 30.9056 -94.6219 162° South 394 453 15,000 48 Level Houston Center
11:46AM 30.8011 -94.5842 163° South 393 452 15,100 -378 Climbing Houston Center
11:47AM 30.6514 -94.5283 162° South 396 456 14,100 -871 Descending Houston Center
11:48AM 30.5933 -94.5069 162° South 390 449 13,300 -1,355 Descending Houston Center
11:48AM 30.5492 -94.4908 163° South 388 447 12,700 -1,161 Descending Houston Center
11:49AM 30.4908 -94.4692 162° South 376 433 12,100 -400 Descending Houston Center
11:50AM 30.3919 -94.5086 199° South 363 418 12,000 -135 Descending Houston Center
11:51AM 30.3075 -94.6214 229° Southwest 368 423 11,800 -480 Descending Houston Center
11:52AM 30.2603 -94.6881 231° Southwest 365 420 11,000 -931 Descending Houston Center
11:53AM 30.1967 -94.7764 230° Southwest 360 414 10,000 -484 Descending Houston Center
11:54AM 30.1214 -94.8814 230° Southwest 356 410 10,000 -290 Level Houston Center
11:55AM 30.1064 -94.9714 259° West 301 346 9,400 -1,065 Descending Houston Center
11:56AM 30.1067 -95.0594 270° West 281 323 7,800 -1,403 Descending Houston Center
11:57AM 30.1075 -95.1464 271° West 275 316 6,500 -850 Descending Houston Center
11:58AM 30.1064 -95.2489 269° West 268 308 6,000 -242 Descending Houston Center
11:59AM 30.1075 -95.3336 271° West 267 307 6,000 -344 Level Houston Center
12:00PM 30.0967 -95.4189 262° West 244 281 5,300 -1,104 Descending Houston Center
12:01PM 30.0869 -95.4911 261° West 246 283 3,700 -1,065 Descending Houston Center
12:03PM 30.0733 -95.5672 258° West 244 281 3,100 -295 Descending Houston Center
12:04PM 30.0492 -95.6369 248° West 215 247 3,100  Level Houston Center
12:05PM 30.0042 -95.6278 170° South 210 242 3,100  Level Houston Center
12:06PM 30.0064 -95.5578 88° East 224 258 3,100  Level Houston Center